Regional Weather Roundup
Issued by NWS

Current Version | Previous Version | Text Only | Print | Product List | Glossary On
Versions: 1 2 3 4 5 6 7 8 9 10 11 12 13 14 15 16 17 18 19 20 21 22 23 24 25 26 27
000
ASUS42 KTBW 300917
RWRFL
FLORIDA REGIONAL WEATHER ROUNDUP
NATIONAL WEATHER SERVICE TAMPA BAY RUSKIN FL
500 AM EDT SAT APR 30 2016

NOTE: "FAIR" INDICATES FEW OR NO CLOUDS BELOW 12,000 FEET WITH NO
SIGNIFICANT WEATHER AND/OR OBSTRUCTIONS TO VISIBILITY.

FLZ001>010-012>015-112-114-115-301000-
PANHANDLE FLORIDA

CITY           SKY/WX    TMP DP  RH WIND       PRES   REMARKS
PENSACOLA      CLOUDY    75  72  90 E6        29.87S
MILTON NAS     LGT RAIN  71  71 100 SE5       29.89
CRESTVIEW      FOG       70  69  97 CALM      29.91R VSB 1/4
DUKE FIELD     FAIR      70  70 100 SE2       29.88S
VALPARAISO     CLOUDY    72  70  95 E6        29.89R
MARY ESTHER    FOG       72  70  94 E2        29.88  VSB 1
PANAMA CITY    FOG       71  70  96 N5        29.89R VSB 1/4
TYNDALL AFB    FOG       71  71 100 E5        29.89S VSB 1/4
APALACHICOLA   FOG       71  71 100 CALM      29.90R VSB 1/4

STATION/POSITION SKY/WX   TEMP    WIND        PRES    WAVE   SWELL
                          AIR SEA DIR/SP/G            HT/PER HT/PER
                          (F)     (DEG/KT/KT) (MB)    (FT/S) (FT/S)
30.1N   87.6W              75 74  100/ 12/ 12 1010.0F   2/ 6   2/ 6
29.2N   88.2W              75 74  130/ 12/ 16 1010.0F
28.8N   86.0W              77 78  130/ 12/ 14 1011.6S   2/ 5   2/ 6
PANAMA CITY BEAC           74 78   90/  3/  4 1012.2F
TOWER C                    73     100/  7/  8 1013.0S
28.5N   84.5W              75 75  100/ 10/ 12 1012.0F   2/ 5   2/ 5

$$
FLZ011-016>038-118-127-128-134-139-239-301000-
NORTH FLORIDA

CITY           SKY/WX    TMP DP  RH WIND       PRES   REMARKS
MARIANNA       PTCLDY    71  71 100 CALM      29.90S
TALLAHASSEE    PTCLDY    67  64  90 CALM      29.91R
PERRY          FOG       71  70  97 SE3       29.94R VSB 1/4
LIVE OAK         N/A     70  70 100 CALM      29.95S
CROSS CITY       N/A     69  66  90 CALM      29.92F
LAKE CITY      MOCLDY    64  64 100 SE5       29.94S
GAINESVILLE    CLEAR     68  67  96 CALM      29.93S
WILLISTON      FAIR      70  68  94 CALM      29.93F
PALATKA        CLOUDY    72  72 100 CALM      29.94S
MAYPORT NAS    CLEAR     70  69  97 E5        29.94F FOG
JACKSONVILLE   CLEAR     67  67 100 CALM      29.94S FOG
JAX NAS        PTCLDY    76  71  85 E5        29.94F
JAX CECIL      PTCLDY    64  64 100 CALM      29.94F
FERNANDINA BEA   N/A     72  70  94 CALM      29.93S
ST AUGUSTINE   CLEAR     71  68  90 CALM      29.95F
PALM COAST     FAIR      67  67 100 CALM      29.94S

STATION/POSITION SKY/WX   TEMP    WIND        PRES    WAVE   SWELL
                          AIR SEA DIR/SP/G            HT/PER HT/PER
                          (F)     (DEG/KT/KT) (MB)    (FT/S) (FT/S)
SHELL POINT                72     360/  1/  2 1011.5
KEATON BEACH               70      90/  6/  7 1013.4R
CEDAR KEY                  74      20/  3/  4 1013.3F
FERNANDINA                 72 71   90/  2/  3 1014.1F
30.7N   81.3W                 72                N/A     1/10
MAYPORT                    72 71  120/  3/  4 1014.2F
ST AUGUSTINE               72 70  140/  2/  2 1014.7F

$$
FLZ040-043>046-052-053-057-058-063-144-301000-
INTERIOR CENTRAL FLORIDA

CITY           SKY/WX    TMP DP  RH WIND       PRES   REMARKS
OCALA          CLEAR     70  64  83 CALM      29.93F
THE VILLAGES     N/A     72  70  94 CALM      29.84S
LEESBURG       CLEAR     75  69  81 SE7       29.94S
SANFORD        CLEAR     70  67  90 SE6       29.94F
ORLANDO EXEC   CLEAR     72  67  84 SE6       29.94F
ORLANDO INTL   PTCLDY    72  67  84 SE5       29.95S
WINTER HAVEN   CLEAR     73  69  87 S6        29.94F
BARTOW         FAIR      66 N/A N/A CALM      29.94S
OKEECHOBEE     CLEAR     64  64 100 NE3       29.95S

$$
FLZ041-047-054-059-064-141-147-301000-
EAST CENTRAL FLORIDA

CITY           SKY/WX    TMP DP  RH WIND       PRES   REMARKS
DAYTONA BEACH  PTCLDY    71  69  93 S6        29.94F
DELAND           N/A     70  68  94 CALM      29.96R
JFK SPACE CTR  CLEAR     70  68  94 CALM      29.94F
CAPE CANAVERAL CLEAR     70  68  93 S2        29.94F
PATRICK AFB    CLEAR     74  69  86 S3        29.95S
MELBOURNE      CLEAR     71  68  90 CALM      29.95S
VERO BEACH     CLEAR     67  64  90 CALM      29.96R
FT PIERCE      PTCLDY    64  64 100 CALM      29.95R
STUART         CLEAR     72  68  88 CALM      29.97R

STATION/POSITION SKY/WX   TEMP    WIND        PRES    WAVE   SWELL
                          AIR SEA DIR/SP/G            HT/PER HT/PER
                          (F)     (DEG/KT/KT) (MB)    (FT/S) (FT/S)
28.5N   80.2W              77 78  200/  8/  8 1014.8R
28.9N   78.5W              75 77  170/  6/  8 1014.5R
TRIDENT PIER               76 80  210/  4/  5 1014.3R
28.4N   80.5W                 77                N/A     2/11
27.5N   80.2W                 78                N/A     2/11

$$
FLZ050-056-061-142-242-148-248-149-249-151-251-155-255-
160-260-301000-
WEST CENTRAL FLORIDA

CITY           SKY/WX    TMP DP  RH WIND       PRES   REMARKS
CRYSTAL RIVER  FAIR      66  66 100 CALM      29.93R FOG
INVERNESS      FAIR      66  66 100 CALM      29.93S FOG
BROOKSVILLE    CLEAR     67  65  93 E5        29.94R
ZEPHYRHILLS    FAIR      63  60  90 CALM      29.93S
CLEARWATER AIR FAIR      70  68  94 CALM      29.92S
ST PETE CLEARW PTCLDY    71  67  87 S6        29.92S
TAMPA INTL     CLEAR     75  68  78 S6        29.92F
TAMPA EXEC     CLEAR     70  66  88 CALM      29.93S
PLANT CITY     CLEAR     72  70  94 S3        29.95R
MACDILL AFB    CLEAR     74  72  92 S6        29.92S
PETER O KNIGHT CLEAR     79  70  73 S6        29.93R
ST PETERSBURG  PTCLDY    77  67  71 CALM      29.91S
SARASOTA       CLEAR     72  68  87 E3        29.91S
VENICE         NOT AVBL

STATION/POSITION SKY/WX   TEMP    WIND        PRES    WAVE   SWELL
                          AIR SEA DIR/SP/G            HT/PER HT/PER
                          (F)     (DEG/KT/KT) (MB)    (FT/S) (FT/S)
27.3N   84.2W                 80                N/A     2/ 3
CLEARWATER BEACH           76 81  120/  5/  6 1013.1F
MIDDLE TAMPA BAY NOT AVBL
VENICE                     74 81  100/  4/  5 1013.0R

$$
FLZ066-069-070-075>078-162-262-165-265-301000-
SOUTHWEST FLORIDA AND KEYS

CITY           SKY/WX    TMP DP  RH WIND       PRES   REMARKS
PUNTA GORDA    CLEAR     68  68 100 SE5       29.94F
FT MYERS       CLEAR     69  68  96 SE3       29.92F
SOUTHWEST INTL CLEAR     68  66  93 CALM      29.93F
NAPLES         PTCLDY    71  69  93 SE3       29.93S
MARCO ISLAND   CLEAR     70  64  83 E5        29.93S
MARATHON       PTCLDY    77  67  71 E8G17     29.92S
KEY WEST NAS   PTCLDY    77  67  71 E14       29.92R
KEY WEST INTL  CLEAR     76  69  79 E14       29.92S

STATION/POSITION SKY/WX   TEMP    WIND        PRES    WAVE   SWELL
                          AIR SEA DIR/SP/G            HT/PER HT/PER
                          (F)     (DEG/KT/KT) (MB)    (FT/S) (FT/S)
NAPLES                        82              1013.4R
26.0N   85.6W              79 80  130/ 17/ 21 1011.1S   4/ 5
DRY TORTUGAS               78     130/ 16/ 17 1012.5F
SAND KEY                   78     140/ 16/ 18 1013.2S
LONG KEY                   78 81  120/ 15/ 16 1013.6R
MOLASSES REEF              77 81  100/ 12/ 13 1013.9

$$
FLZ067-068-071>074-168-172>174-301000-
SOUTHEAST FLORIDA

CITY           SKY/WX    TMP DP  RH WIND       PRES   REMARKS
W PALM BEACH   PTCLDY    74  66  76 SE5       29.95R
FT LAUDER-EXEC CLEAR     75  64  68 E6        29.94R
FT LAUDERDALE  PTCLDY    76  65  68 SE7       29.94R
POMPANO BEACH  CLEAR     73  66  78 SE9       29.94R
PEMBROKE PINES CLEAR     75  64  68 E3        29.96R
OPA LOCKA      CLEAR     74  65  73 SE3       29.94R
MIAMI          PTCLDY    75  66  73 E7        29.94R
WEST KENDALL     N/A    N/A N/A N/A MISG      29.94R
HOMESTEAD      CLEAR     73  65  75 E8        29.94R

STATION/POSITION SKY/WX   TEMP    WIND        PRES    WAVE   SWELL
                          AIR SEA DIR/SP/G            HT/PER HT/PER
                          (F)     (DEG/KT/KT) (MB)    (FT/S) (FT/S)
PORT EVERGLADES            77     120/  4/  9 1013.9R
VIRGINIA KEY               77 81  110/  8/ 12 1013.7F
LAKE WORTH                 77 79  140/  8/ 10 1013.4F
SETTLEMENT POINT           74     130/  6/  7 1014.8R

$$





USA.gov is the U.S. government's official web portal to all federal, state and local government web resources and services.